Weather History for Morrisville, VT

Change the Weather History Date:

Thursday, May 29, 2014

  Actual Average Record
Temperature  
Mean Temperature 57 °F 58 °F  
Max Temperature 70 °F 70 °F 84 °F (1998)
Min Temperature 43 °F 45 °F 36 °F (1997)
Degree Days  
Heating Degree Days 8 8  
Month to date heating degree days 276 337  
Since 1 July heating degree days 8489 8117  
Cooling Degree Days 0 0  
Month to date cooling degree days 5 0  
Year to date cooling degree days 5 1  
Growing Degree Days 6 (Base 50)    
Moisture  
Dew Point 44 °F    
Average Humidity 64    
Maximum Humidity 100    
Minimum Humidity 27    
Precipitation  
Precipitation 0.00 in 0.14 in 0.92 in (2012)
Month to date precipitation 3.50 2.99  
Year to date precipitation 13.55 11.34  
Sea Level Pressure  
Sea Level Pressure 30.23 in    
Wind  
Wind Speed 2 mph (SSW)    
Max Wind Speed 9 mph    
Max Gust Speed 12 mph    
Visibility 6 miles    
Events Fog    
T = Trace of Precipitation, MM = Missing Value Source: NWS Daily Summary

Daily Weather History Graph

Daily Weather History Graph

Search for Another Location

Airport:

Trip Planner

Search our weather history database for the weather conditions in past years. The results will help you decide how hot, cold, wet, or windy it might be!

Date:

Astronomy

May. 29, 2014 Rise Set
Actual Time 5:10 AM EDT 8:25 PM EDT
Civil Twilight 4:34 AM EDT 9:01 PM EDT
Nautical Twilight 3:48 AM EDT 9:47 PM EDT
Astronomical Twilight 2:52 AM EDT 10:44 PM EDT
Moon 6:04 AM EDT (5/29) 9:11 PM EDT (5/29)
Length of Visible Light 16h 26m
Length of Day
15h 15m
New Moon, 1% of the Moon is Illuminated
May 29
New Moon
Jun 5
First Quarter
Jun 13
Full
Jun 19
Last Quarter
Jun 27
New

Hourly Weather History & Observations

Time (EDT) Temp. Windchill Dew Point Humidity Pressure Visibility Wind Dir Wind Speed Gust Speed Precip Events Conditions
12:54 AM 45.0 °F - 44.1 °F 97% 30.25 in 0.2 mi Calm Calm - N/A Fog Fog
2:54 AM 43.0 °F - 42.1 °F 97% 30.25 in 0.5 mi Calm Calm - N/A Fog Fog
3:54 AM 43.0 °F 41.3 °F 41.0 °F 93% 30.25 in 0.2 mi Variable 3.5 mph - N/A Fog Fog
4:54 AM 43.0 °F - 42.1 °F 97% 30.27 in 0.5 mi Calm Calm - N/A Fog Fog
5:54 AM 43.0 °F 41.3 °F 42.1 °F 97% 30.27 in 0.2 mi North 3.5 mph - N/A Fog Fog
6:51 AM 42.8 °F - 42.8 °F 100% 30.27 in 1.2 mi Calm Calm - N/A   Overcast
6:54 AM 43.0 °F - 42.1 °F 97% 30.29 in 2.0 mi Calm Calm - N/A   Overcast
7:05 AM 43.0 °F - 43.0 °F 100% 30.27 in 1.0 mi Calm Calm - N/A   Overcast
7:14 AM 44.1 °F - 43.0 °F 96% 30.27 in 0.8 mi Calm Calm - N/A   Overcast
7:54 AM 44.1 °F 42.5 °F 43.0 °F 96% 30.28 in 0.5 mi Variable 3.5 mph - N/A Fog Fog
8:04 AM 45.0 °F - 44.1 °F 97% 30.27 in 1.2 mi Calm Calm - N/A   Overcast
8:19 AM 45.0 °F 43.5 °F 43.0 °F 93% 30.27 in 2.5 mi SSE 3.5 mph - N/A   Overcast
8:26 AM 45.0 °F 43.5 °F 44.1 °F 97% 30.26 in 3.0 mi Variable 3.5 mph - N/A   Overcast
8:54 AM 46.9 °F - 45.0 °F 93% 30.28 in 10.0 mi SSW 4.6 mph - N/A   Overcast
9:41 AM 51.1 °F - 46.9 °F 86% 30.26 in 10.0 mi Calm Calm - N/A   Overcast
9:54 AM 53.1 °F - 46.9 °F 80% 30.28 in 10.0 mi Calm Calm - N/A   Mostly Cloudy
10:11 AM 54.0 °F - 48.0 °F 80% 30.26 in 10.0 mi Calm Calm - N/A   Partly Cloudy
10:54 AM 59.0 °F - 46.0 °F 62% 30.26 in 10.0 mi Calm Calm - N/A   Clear
11:54 AM 61.0 °F - 44.1 °F 54% 30.24 in 10.0 mi Variable 4.6 mph - N/A   Clear
12:54 PM 63.0 °F - 45.0 °F 52% 30.22 in 10.0 mi SSW 3.5 mph - N/A   Clear
1:54 PM 64.9 °F - 41.0 °F 42% 30.20 in 10.0 mi Calm Calm - N/A   Clear
2:54 PM 68.0 °F - 37.9 °F 33% 30.17 in 10.0 mi Variable 3.5 mph - N/A   Clear
3:54 PM 69.1 °F - 37.0 °F 31% 30.14 in 10.0 mi Variable 4.6 mph - N/A   Clear
6:54 PM 66.9 °F - 39.0 °F 36% 30.11 in 10.0 mi Calm Calm - N/A   Mostly Cloudy
7:54 PM 60.1 °F - 48.0 °F 64% 30.12 in 10.0 mi Calm Calm - N/A   Clear
8:54 PM 57.0 °F - 46.9 °F 69% 30.13 in 10.0 mi Calm Calm - N/A   Overcast
9:54 PM 55.9 °F - 46.0 °F 69% 30.14 in 10.0 mi Calm Calm - N/A   Overcast
10:54 PM 55.0 °F - 48.0 °F 77% 30.13 in 10.0 mi Calm Calm - N/A   Overcast
11:54 PM 54.0 °F - 48.9 °F 83% 30.12 in 10.0 mi Calm Calm - N/A   Overcast